Regional Weather Roundup
Issued by NWS

Home | Current Version | Previous Version | Graphics & Text | Print | Product List | Glossary Off
Versions: 1 2 3 4 5 6 7 8 9 10 11 12 13 14 15 16 17 18 19 20 21 22 23 24 25 26 27 28 29 30 31 32 33 34 35 36 37 38 39 40 41 42 43 44 45 46 47 48 49 50

000
ASUS43 KMKX 262100
RWRWI

WISCONSIN REGIONAL WEATHER ROUNDUP
NATIONAL WEATHER SERVICE MILWAUKEE/SULLIVAN WI
400 PM CDT SUN MAR 26 2017

NOTE: "FAIR" INDICATES FEW OR NO CLOUDS BELOW 12,000 FEET WITH NO
SIGNIFICANT WEATHER AND/OR OBSTRUCTIONS TO VISIBILITY.

WIZ001-002-006>008-014>016-023>028-262200-
NORTHWEST WISCONSIN

CITY           SKY/WX    TMP DP  RH WIND       PRES   REMARKS
SUPERIOR ARPT  CLOUDY    35  34  94 E7        29.95F WCI  29
ASHLAND        CLOUDY    36  33  89 N8        29.93S WCI  30
HAYWARD        CLOUDY    41  35  79 N7        29.89S
SIREN          CLOUDY    41  36  83 CALM      29.90S
CUMBERLAND     CLOUDY    41  36  81 N6        29.88S
RICE LAKE      CLOUDY    43  38  82 CALM      29.89S
CHETEK         CLOUDY    42  37  84 NW3       29.87F
LADYSMITH      CLOUDY    43  38  83 N3        29.88S
EAU CLAIRE     NOT AVBL
MENOMONIE      CLOUDY    42  38  84 NW5       29.88S
NEW RICHMOND   CLOUDY    41  38  87 N6        29.90R
OSCEOLA        CLOUDY    42  42 100 N6        29.93S
$$

WIZ003>005-009-010-017-018-262200-
NORTH CENTRAL WISCONSIN

CITY           SKY/WX    TMP DP  RH WIND       PRES   REMARKS
MANITOWISH WTR CLOUDY    39  39 100 N6        29.84F WCI  35
ARBOR VITAE    CLOUDY    41  39  91 N5        29.84S
WOODRUFF       CLOUDY    41  39  91 N5        29.84S
RHINELANDER    CLOUDY    39  38  96 CALM      29.84F
EAGLE RIVER    LGT RAIN  38  38  98 NE3       29.84S
LAND O LAKES   CLOUDY    40  38  91 CALM      29.86F
PHILLIPS       CLOUDY    39  38  97 N3        29.85S
TOMAHAWK       CLOUDY    38  36  91 CALM      29.85S
MEDFORD        DRIZZLE   38  37  94 E3        29.84F
MERRILL        LGT RAIN  39  38  96 CALM      29.85F
$$

WIZ029-030-035-036-043>047-262200-
CENTRAL WISCONSIN

CITY           SKY/WX    TMP DP  RH WIND       PRES   REMARKS
WAUSAU         CLOUDY    39  37  92 E5        29.84R
MOSINEE        CLOUDY    37  37 100 NE3       29.86S
MARSHFIELD     CLOUDY    40  37  89 E3        29.83F
STEVENS POINT  CLOUDY    37  37 100 E5        29.86S FOG     WCI  33
WAUPACA        RAIN      40  39  95 NE3       29.86S
WAUTOMA        RAIN      39  38  96 NE7       29.86S WCI  34
WISC RAPIDS    CLOUDY    39  39 100 CALM      29.87R FOG
CAMP DOUGLAS   CLOUDY    39  39 100 CALM      29.85S
$$

WIZ011>013-019>022-031-037>040-048>050-262200-
NORTHEAST WISCONSIN

CITY           SKY/WX    TMP DP  RH WIND       PRES   REMARKS
ANTIGO         CLOUDY    37  37  99 SE3       29.85R
SHAWANO        RAIN      39  37  93 CALM      29.87F
OCONTO         CLOUDY    37  36  97 NE5       29.87S WCI  33
STURGEON BAY   LGT RAIN  38  38 100 NE5       29.86F FOG     WCI  34
GREEN BAY      LGT RAIN  38  38 100 NE10      29.86F WCI  31
MANITOWOC      NOT AVBL
APPLETON       DRIZZLE   39  39 100 NE9       29.84S WCI  33
CLINTONVILLE   LGT RAIN  37  36  93 NE7       29.86F WCI  32
OSHKOSH        LGT RAIN  40  39  97 NE8       29.84S FOG     WCI  34
$$

WIZ032>034-041-042-053>061-262200-
SOUTHWEST WISCONSIN

CITY           SKY/WX    TMP DP  RH WIND       PRES   REMARKS
LA CROSSE      CLOUDY    43  39  86 NW8       29.87R FOG
SPARTA         CLOUDY    41  39  94 NE3       29.86S
VIROQUA        CLOUDY    41  41 100 NE3       29.84R
BOSCOBEL       CLOUDY    46  42  86 N3        29.85R
PRAIRIE DU CHI CLOUDY    43  42  97 NW7       29.85R
PLATTEVILLE    CLOUDY    48  48 100 N5        29.83R
$$

WIZ056-057-062-063-064-067-068-262200-
SOUTH CENTRAL WISCONSIN

CITY           SKY/WX    TMP DP  RH WIND       PRES   REMARKS
REEDSBURG      DRIZZLE   41  41 100 NE5       29.84S
BARABOO/DELLS  DRIZZLE   40  38  94 NE3       29.84S
LONE ROCK      CLOUDY    45  41  87 NE6       29.84S FOG
MINERAL POINT  FOG       46  46 100 NE3       29.82S VSB 1
MADISON        LGT RAIN  46  43  89 N6        29.82S
MIDDLETON      CLOUDY    46  46 100 NE3       29.83S
WATERTOWN      DRIZZLE   46  46 100 CALM      29.81F
MONROE         CLOUDY    50  50 100 CALM      29.80F FOG
JANESVILLE     CLOUDY    52  52 100 N3        29.80F FOG
$$

WIZ051-052-058>065-066-070>072-262200-
SOUTHEAST WISCONSIN

CITY           SKY/WX    TMP DP  RH WIND       PRES   REMARKS
MILWAUKEE      FOG       45  42  89 NE6       29.82S VSB 1
WAUKESHA       NOT AVBL
MILWAUKEE/TIMM CLOUDY    41  39  93 NE5       29.83F
RACINE         CLOUDY    45  43  93 N5        29.83F FOG
KENOSHA        CLOUDY    51  50  96 CALM      29.80F FOG
FOND DU LAC    LGT RAIN  42  40  92 N6        29.83S FOG
SHEBOYGAN      LGT RAIN  40  38  93 NE8       29.83F VSB 1   WCI  34
WEST BEND      LGT RAIN  41  41 100 NE3       29.83S
JUNEAU         DRIZZLE   44  43  96 CALM      29.83F
$$

LSZ147-162-262200-
LAKE SUPERIOR

STATION/POSITION TIME  TEMP    WIND        PRES    WAVE
                       AIR SEA DIR/SP/G            HT/PER
                 (UTC) (F)     (DEG/KT/KT) (MB)    (FT/S)
DEVILS ISLAND    2000   33      40/ 13/ 13 1014.9F
PORT WING        2040   34      30/ 11/ 12 1014.2F
SAXON HARBOR     2030   34      20/  2/  3 1013.2F
$$

LMZ867-665-643>646-262200-
LAKE MICHIGAN

STATION/POSITION TIME  TEMP    WIND        PRES    WAVE
                       AIR SEA DIR/SP/G            HT/PER
                 (UTC) (F)     (DEG/KT/KT) (MB)    (FT/S)
CHAMBERS ISLAND  2040   33      20/  6/  7 1011.9R
NORTHPORT PIER   2040   35      80/  2/  5 1011.9S
KEWAUNEE LAKESHO 2030   37      40/  6/  9 1010.7F
SHEBOYGAN LAKESH 2000   36      10/  7/  8 1011.0F
PORT WASHINGTON  2040   40      40/  5/  7 1011.2F
MILWAUKEE LAKESH 2030   40      20/  5/  6   N/A
KENOSHA   LAKESH 2000   40      30/  2/  3 1010.2
$$

TC  - TEMPERATURE IN CELSIUS
VSB - VISIBILITY IN STATUTE MILES
WCI - WIND CHILL INDEX
HX  - HEAT INDEX





USA.gov is the U.S. government's official web portal to all federal, state and local government web resources and services.